Showing default

RESURS O1, 23342

Orbit data source: Space-Track

RESURS O1, 23342 is a payload satellite owned by Priroda (CIS) in SSO that was launched on Fri, 04 Nov 1994 UTC via a ZENIT-2 launch vehicle from the Tyuratam Missile And Space Complex (TTMTR). Payloads include a variety of satellites, spacecraft, and rockets equipped with specific instruments for various scientific and technological missions. These include communications satellites like Starlink; space stations such as the ISS; scientific satellites like the Hubble; Earth observation satellites from companies like Planet Labs, Umbra, and HawkEye 360; GPS; miniature CubeSats for education and research; and military/defense satellites.

Loading next visibility...
RESURS O1 details
Identifier
23342, 1994-074A
Orbit
SSO
Last TLE update17 hours ago
Origin
Flag of CISPriroda (CIS)
ManufacturerVNIIEM
MissionCivil Imaging
Bus & MotorRESURS-O, Unknown motor
Mass1,900 kg wet, 1,900 kg dry
Launch date (UTC)
1994-11-04 (30 years ago)
Launch vehicle
ZENIT-2
Launch site
Tyuratam Missile And Space Complex (TTMTR)
Object type
Payload
Rocket body
Debris
Shape & HBRCyl + 2 Pan, 11.6 m
Radar Cross Section11.656 m², Large (>1 m²)

Expand to show TLE details & history

TLE from 17 hours ago
0 RESURS O1
1 23342U 94074A   25023.92314796  .00003002  00000-0  36936-3 0  9996
2 23342  97.7073  55.8351 0001050  60.7612 299.3708 14.83697878628379
Epoch: 2025-01-23T22:09Z
Definitive object data (Epoch: 2025-01-23T22:09:19.983Z)
Latitude0.00002°
Longitude-39.99187°
Altitude620.348 km
Speed7.549 km/s
True Right ascension03h 43m 20s
True Declination0° 00' 00"
Sunlit
Object was in daylight at TLE epoch
Visualization TLE readout
Latitude70.8897°
Longitude-62.18764°
Altitude629.191 km
Speed7.551 km/s
Apparent Right ascension03h 23m 58s
Apparent Declination19° 44' 12"
Sunlit
Object is in daylight
Visualization observer readout
Local Sidereal Time15:56:10
Azimuth8.745° NNE
Elevation-29.876°
Doppler factor1
Orbital elements
Apogee altitude615.438 km
Perigee altitude613.969 km
Semi-major axis6,992.84 km
Eccentricity0.000105
Inclination97.7073°
RAAN55.8351°
Arg. of periapsis60.7612°
True anomaly299.36031°
Mean anomaly299.3708°
Eccentric anomaly299.36556°
Mean motion3.71161 °/min
BSTAR0.00036936
Orbital period96.99 mins
Loading maneuver chart data...

RESURS O1 Visibility forecast

Observer location: undefined°, undefined

Span
Click to sort rows by Start time (UTC) header in descending order
Start Az.
Max El. time (UTC)
Max El. Az.
Max El.
End time (UTC)
End Az.
8 mins2025-01-24 14:53:57.831Z10.985° NNE2025-01-24 14:57:57.831Z327.81° NNW44.784°2025-01-24 15:01:57.831Z195.603° SSW
6 mins2025-01-25 01:48:57.831Z149.644° SSE2025-01-25 01:50:57.831Z101.849° ESE41.479°2025-01-25 01:54:57.831Z355.203° N
|